M I D A S
Marine Information and Data Acquisition System
Tripno 1470 of the Zeeleeuw from 2007-12-04 07:34:34 to 2007-12-04 13:11:10
Back to CruiseResearch ActivitiesStationsMapUnderway DataData graphs

EquipmentUnitsComments
TimeDGPSUTC
LatitudeDGPSDM.mWGS84
LongitudeDGPSDM.mWGS84
SpeedMeteo Stationm/sRelative wind speed
DirectionMeteo StationdegRelative wind direction
TemperatureMeteo Stationdeg CelciusAir temperature
PressureMeteo StationPaAtmospheric pressure
HumidityMeteo Station%Relative humidity
Missing or incorrect values are displayed as -999
Metereological data collected by the RV Zeeleeuw from 2007-12-04 07:35:02 to 2007-12-04 13:26:15
                                                                                    Next 1000 lines
Time Latitude Longitude Speed Direction Temperature Pressure Humidity
2007-12-04 07:35:12 51°13.598 2°56.094 4.1 23 8.8 101420 69
2007-12-04 07:35:17 51°13.598 2°56.093 2.6 52 8.8 101420 69
2007-12-04 07:35:22 51°13.599 2°56.092 3 28 8.8 101420 70
2007-12-04 07:35:26 51°13.599 2°56.09 3.2 56 8.8 101420 70
2007-12-04 07:35:32 51°13.599 2°56.088 2.5 24 8.8 101430 70
2007-12-04 07:35:37 51°13.6 2°56.086 4.6 51 8.8 101430 70
2007-12-04 07:35:41 51°13.6 2°56.084 3.9 25 8.9 101430 71
2007-12-04 07:35:46 51°13.601 2°56.081 5.2 57 8.9 101430 71
2007-12-04 07:35:51 51°13.602 2°56.078 4.5 25 8.9 101420 71
2007-12-04 07:35:57 51°13.603 2°56.073 3.7 56 8.9 101420 71
2007-12-04 07:36:02 51°13.604 2°56.069 3.1 24 8.9 101430 70
2007-12-04 07:36:08 51°13.605 2°56.064 4.3 53 8.9 101430 70
2007-12-04 07:36:13 51°13.606 2°56.06 4 28 8.9 101420 70
2007-12-04 07:36:18 51°13.608 2°56.054 3.6 52 8.9 101420 70
2007-12-04 07:36:23 51°13.609 2°56.049 6.2 27 8.9 101430 70
2007-12-04 07:36:28 51°13.611 2°56.043 4.5 52 8.9 101430 70
2007-12-04 07:36:33 51°13.612 2°56.037 4.1 21 8.9 101430 71
2007-12-04 07:36:38 51°13.614 2°56.031 3.4 54 8.9 101430 71
2007-12-04 07:36:43 51°13.616 2°56.024 3.5 21 9 101430 72
2007-12-04 07:36:48 51°13.618 2°56.018 3.8 53 9 101430 72
2007-12-04 07:36:53 51°13.62 2°56.011 4.7 28 8.9 101430 70
2007-12-04 07:36:58 51°13.622 2°56.004 3.6 51 8.9 101430 70
2007-12-04 07:37:03 51°13.624 2°55.997 4 26 9 101430 71
2007-12-04 07:37:08 51°13.626 2°55.99 3.8 52 9 101430 71
2007-12-04 07:37:13 51°13.629 2°55.983 5.1 23 9 101430 71
2007-12-04 07:37:18 51°13.631 2°55.976 4.6 54 9 101430 71
2007-12-04 07:37:23 51°13.634 2°55.969 4.3 22 9.1 101430 72
2007-12-04 07:37:28 51°13.636 2°55.962 4 51 9.1 101430 72
2007-12-04 07:37:33 51°13.639 2°55.955 4.7 28 9.1 101430 72
2007-12-04 07:37:38 51°13.641 2°55.948 4.3 53 9.1 101430 72
2007-12-04 07:37:43 51°13.644 2°55.941 5 21 9.1 101430 70
2007-12-04 07:37:48 51°13.647 2°55.934 5.1 56 9.1 101430 70
2007-12-04 07:37:53 51°13.65 2°55.927 4 26 9.2 101440 71
2007-12-04 07:37:58 51°13.653 2°55.919 6.9 56 9.2 101440 71
2007-12-04 07:38:03 51°13.656 2°55.911 8.8 24 9.2 101430 70
2007-12-04 07:38:08 51°13.658 2°55.903 7.1 54 9.2 101430 70
2007-12-04 07:38:13 51°13.662 2°55.895 6.9 28 9.2 101440 70
2007-12-04 07:38:18 51°13.664 2°55.887 6.9 54 9.2 101440 70
2007-12-04 07:38:23 51°13.667 2°55.879 7.8 22 9.2 101430 69
2007-12-04 07:38:28 51°13.67 2°55.87 7.9 54 9.2 101430 69
2007-12-04 07:38:33 51°13.672 2°55.862 5.7 23 9.2 101440 68
2007-12-04 07:38:38 51°13.675 2°55.854 6.2 57 9.2 101440 68
2007-12-04 07:38:43 51°13.677 2°55.846 6.1 23 9.1 101440 68
2007-12-04 07:38:48 51°13.679 2°55.838 6.4 53 9.1 101440 68
2007-12-04 07:38:53 51°13.681 2°55.83 6.5 25 9.1 101430 68
2007-12-04 07:38:58 51°13.683 2°55.822 7.5 58 9.1 101430 68
2007-12-04 07:39:03 51°13.684 2°55.814 5.9 23 9 101440 68
2007-12-04 07:39:08 51°13.686 2°55.807 6.9 53 9 101440 68
2007-12-04 07:39:13 51°13.687 2°55.799 7.2 21 9 101440 68
2007-12-04 07:39:18 51°13.688 2°55.792 6.7 57 9 101440 68
2007-12-04 07:39:23 51°13.689 2°55.784 5.9 28 9 101440 68
2007-12-04 07:39:28 51°13.691 2°55.777 4.4 57 9 101440 68
2007-12-04 07:39:33 51°13.692 2°55.77 5.2 24 9 101440 69
2007-12-04 07:39:38 51°13.692 2°55.763 4.7 54 9 101440 69
2007-12-04 07:39:43 51°13.693 2°55.756 6 23 8.9 101440 69
2007-12-04 07:39:48 51°13.694 2°55.75 5.1 56 8.9 101440 69
2007-12-04 07:39:53 51°13.694 2°55.745 5.1 19 8.9 101440 69
2007-12-04 07:39:58 51°13.694 2°55.741 3.2 57 8.9 101440 69
2007-12-04 07:40:02 51°13.695 2°55.737 3.8 24 8.9 101440 69
2007-12-04 07:40:07 51°13.695 2°55.734 4.7 58 8.9 101440 69
2007-12-04 07:40:12 51°13.695 2°55.731 5.6 24 8.9 101440 69
2007-12-04 07:40:17 51°13.695 2°55.729 5.2 52 8.9 101440 69
2007-12-04 07:40:22 51°13.694 2°55.728 4 22 8.9 101440 69
2007-12-04 07:40:26 51°13.694 2°55.727 4.4 54 8.9 101440 69
2007-12-04 07:40:31 51°13.694 2°55.727 4.1 27 8.9 101440 70
2007-12-04 07:40:36 51°13.695 2°55.727 2.7 57 8.9 101440 70
2007-12-04 07:40:41 51°13.695 2°55.728 2.6 27 8.8 101440 70
2007-12-04 07:40:46 51°13.696 2°55.73 2.9 306 8.8 101440 70
2007-12-04 07:40:50 51°13.696 2°55.732 2.3 260 8.8 101440 70
2007-12-04 07:40:55 51°13.697 2°55.734 3.3 301 8.8 101440 70
2007-12-04 07:41:00 51°13.698 2°55.737 2.7 262 8.8 101440 70
2007-12-04 07:41:05 51°13.699 2°55.739 4 307 8.8 101440 70
2007-12-04 07:41:10 51°13.7 2°55.741 3.8 251 8.8 101440 70
2007-12-04 07:41:14 51°13.701 2°55.742 4.1 305 8.8 101440 70
2007-12-04 07:41:19 51°13.701 2°55.742 4 257 8.8 101440 70
2007-12-04 07:41:25 51°13.702 2°55.742 4.5 307 8.8 101440 70
2007-12-04 07:41:29 51°13.701 2°55.742 3.1 260 8.8 101440 70
2007-12-04 07:41:34 51°13.7 2°55.741 1.9 305 8.8 101440 70
2007-12-04 07:41:39 51°13.699 2°55.739 2.9 265 8.8 101440 70
2007-12-04 07:41:45 51°13.697 2°55.736 4.4 305 8.8 101440 70
2007-12-04 07:41:50 51°13.695 2°55.733 3.7 266 8.8 101440 70
2007-12-04 07:41:56 51°13.692 2°55.731 3.2 303 8.8 101440 70
2007-12-04 07:42:01 51°13.691 2°55.729 3.9 249 8.8 101440 70
2007-12-04 07:42:07 51°13.689 2°55.727 3.6 304 8.8 101440 70
2007-12-04 07:42:13 51°13.688 2°55.726 4.1 248 8.8 101440 70
2007-12-04 07:42:18 51°13.688 2°55.726 3.4 303 8.8 101440 70
2007-12-04 07:42:23 51°13.689 2°55.727 4.4 249 8.8 101440 70
2007-12-04 07:42:28 51°13.691 2°55.727 3.1 303 8.8 101440 70
2007-12-04 07:42:33 51°13.694 2°55.728 4.2 21 8.8 101440 70
2007-12-04 07:42:38 51°13.696 2°55.728 4.3 301 8.8 101440 70
2007-12-04 07:42:43 51°13.7 2°55.728 4.9 317 8.8 101440 70
2007-12-04 07:42:48 51°13.703 2°55.727 5.8 308 8.8 101440 70
2007-12-04 07:42:53 51°13.706 2°55.725 5.5 22 8.8 101440 70
2007-12-04 07:42:58 51°13.709 2°55.724 4.3 303 8.8 101440 70
2007-12-04 07:43:02 51°13.712 2°55.722 4.3 327 8.8 101430 70
2007-12-04 07:43:07 51°13.716 2°55.72 5.2 310 8.8 101430 70
2007-12-04 07:43:12 51°13.72 2°55.717 4.3 24 8.7 101440 70
2007-12-04 07:43:17 51°13.724 2°55.714 5.1 332 8.7 101440 70
2007-12-04 07:43:22 51°13.729 2°55.71 5.5 332 8.7 101440 70
2007-12-04 07:43:26 51°13.733 2°55.707 6.4 327 8.7 101440 70
2007-12-04 07:43:31 51°13.738 2°55.703 5 329 8.7 101430 70
2007-12-04 07:43:36 51°13.744 2°55.7 4.8 330 8.7 101430 70
2007-12-04 07:43:41 51°13.75 2°55.695 5 326 8.7 101430 70
2007-12-04 07:43:46 51°13.757 2°55.69 5.4 330 8.7 101430 70
2007-12-04 07:43:50 51°13.762 2°55.687 6.2 331 8.7 101430 70
2007-12-04 07:43:55 51°13.769 2°55.681 6.1 328 8.7 101430 70
2007-12-04 07:44:00 51°13.776 2°55.676 6.5 329 8.7 101430 70
2007-12-04 07:44:05 51°13.784 2°55.67 8.8 329 8.7 101430 70
2007-12-04 07:44:10 51°13.792 2°55.664 8.2 330 8.7 101430 70
2007-12-04 07:44:14 51°13.799 2°55.659 8.7 333 8.7 101430 70
2007-12-04 07:44:19 51°13.808 2°55.652 8.3 324 8.8 101430 70
2007-12-04 07:44:25 51°13.819 2°55.644 9.7 329 8.8 101430 70
2007-12-04 07:44:27 51°13.822 2°55.641 8.6 329 8.7 101440 70
2007-12-04 07:44:34 51°13.836 2°55.63 8.4 327 8.7 101440 70
2007-12-04 07:44:40 51°13.848 2°55.62 7.8 326 8.7 101420 70
2007-12-04 07:44:44 51°13.856 2°55.613 7.4 321 8.7 101420 70
2007-12-04 07:44:49 51°13.866 2°55.604 7.5 325 8.8 101430 70
2007-12-04 07:44:55 51°13.879 2°55.593 7.5 325 8.8 101430 70
2007-12-04 07:45:00 51°13.89 2°55.585 7.9 323 8.8 101430 70
2007-12-04 07:45:04 51°13.899 2°55.578 9.1 304 8.8 101430 70
2007-12-04 07:45:09 51°13.91 2°55.569 8.8 320 8.8 101430 70
2007-12-04 07:45:15 51°13.923 2°55.559 9.1 306 8.8 101430 70
2007-12-04 07:45:19 51°13.933 2°55.553 9 323 8.8 101430 70
2007-12-04 07:45:24 51°13.944 2°55.545 8 323 8.8 101430 70
2007-12-04 07:45:29 51°13.956 2°55.536 7.9 323 8.8 101430 70
2007-12-04 07:45:34 51°13.968 2°55.529 7.2 324 8.8 101430 70
2007-12-04 07:45:39 51°13.979 2°55.52 7.2 325 8.8 101430 70
2007-12-04 07:45:45 51°13.993 2°55.51 7.6 302 8.8 101430 70
2007-12-04 07:45:49 51°14.003 2°55.504 8.8 325 8.8 101430 70
2007-12-04 07:45:53 51°14.012 2°55.497 8.4 304 8.8 101430 70
2007-12-04 07:45:59 51°14.026 2°55.488 12.2 318 8.7 101430 70
2007-12-04 07:46:05 51°14.04 2°55.478 11.7 306 8.7 101430 70
2007-12-04 07:46:09 51°14.05 2°55.471 12.7 319 8.8 101430 70
2007-12-04 07:46:15 51°14.064 2°55.461 9.4 308 8.8 101430 70
2007-12-04 07:46:19 51°14.073 2°55.454 12.2 320 8.8 101430 70
2007-12-04 07:46:25 51°14.088 2°55.445 13.7 306 8.8 101430 70
2007-12-04 07:46:29 51°14.097 2°55.438 12.1 317 8.8 101410 71
2007-12-04 07:46:34 51°14.109 2°55.43 11.6 303 8.8 101410 71
2007-12-04 07:46:40 51°14.122 2°55.42 12 319 8.8 101430 71
2007-12-04 07:46:46 51°14.136 2°55.409 12 302 8.8 101430 71
2007-12-04 07:46:52 51°14.15 2°55.398 13.8 320 8.8 101430 71
2007-12-04 07:46:57 51°14.162 2°55.388 11.7 306 8.8 101430 71
2007-12-04 07:47:03 51°14.175 2°55.376 10.9 321 8.8 101420 71
2007-12-04 07:47:08 51°14.187 2°55.365 12.5 306 8.8 101420 71
2007-12-04 07:47:13 51°14.197 2°55.353 10.7 324 8.7 101430 71
2007-12-04 07:47:18 51°14.208 2°55.34 10.9 303 8.7 101430 71
2007-12-04 07:47:23 51°14.217 2°55.326 12 326 8.8 101420 71
2007-12-04 07:47:28 51°14.227 2°55.312 11.7 302 8.8 101420 71
2007-12-04 07:47:33 51°14.237 2°55.297 11.6 328 8.8 101430 71
2007-12-04 07:47:38 51°14.246 2°55.281 13.5 327 8.8 101430 71
2007-12-04 07:47:43 51°14.255 2°55.265 14.1 327 8.8 101430 72
2007-12-04 07:47:48 51°14.264 2°55.248 14 330 8.8 101430 72
2007-12-04 07:47:52 51°14.271 2°55.235 12.1 326 8.8 101430 72
2007-12-04 07:47:57 51°14.279 2°55.218 13.3 326 8.8 101430 72
2007-12-04 07:48:02 51°14.288 2°55.201 12.5 326 8.8 101430 71
2007-12-04 07:48:07 51°14.297 2°55.184 14.7 326 8.8 101430 71
2007-12-04 07:48:12 51°14.306 2°55.167 13.1 326 8.8 101430 72
2007-12-04 07:48:16 51°14.313 2°55.154 12.7 327 8.8 101430 72
2007-12-04 07:48:21 51°14.322 2°55.137 13.5 327 8.8 101420 71
2007-12-04 07:48:26 51°14.33 2°55.121 12.9 328 8.8 101420 71
2007-12-04 07:48:31 51°14.339 2°55.103 14.1 328 8.8 101430 71
2007-12-04 07:48:36 51°14.347 2°55.086 13.6 329 8.8 101430 71
2007-12-04 07:48:40 51°14.353 2°55.072 11.4 328 8.8 101440 71
2007-12-04 07:48:45 51°14.361 2°55.054 14 330 8.8 101440 71
2007-12-04 07:48:50 51°14.37 2°55.036 13.2 330 8.8 101420 71
2007-12-04 07:48:55 51°14.38 2°55.019 12.4 329 8.8 101420 71
2007-12-04 07:48:59 51°14.388 2°55.005 12.6 328 8.8 101430 71
2007-12-04 07:49:04 51°14.398 2°54.99 15.1 328 8.8 101430 71
2007-12-04 07:49:09 51°14.408 2°54.974 12.9 331 8.8 101440 72
2007-12-04 07:49:15 51°14.419 2°54.955 13.4 331 8.8 101440 72
2007-12-04 07:49:19 51°14.426 2°54.94 13.6 333 8.8 101440 72
2007-12-04 07:49:24 51°14.433 2°54.922 12.5 336 8.8 101440 72
2007-12-04 07:49:29 51°14.44 2°54.903 13.9 336 8.8 101440 72
2007-12-04 07:49:35 51°14.446 2°54.878 12.5 338 8.8 101440 72
2007-12-04 07:49:39 51°14.449 2°54.862 13.5 341 8.8 101440 72
2007-12-04 07:49:44 51°14.452 2°54.842 13.3 342 8.8 101440 72
2007-12-04 07:49:49 51°14.454 2°54.821 12.5 343 8.8 101430 72
2007-12-04 07:49:54 51°14.454 2°54.8 10.7 344 8.8 101430 72
2007-12-04 07:49:59 51°14.453 2°54.779 12.2 343 8.8 101420 72
2007-12-04 07:50:05 51°14.452 2°54.753 12.6 343 8.8 101420 72
2007-12-04 07:50:09 51°14.451 2°54.736 12.3 342 8.8 101430 71
2007-12-04 07:50:13 51°14.449 2°54.718 13.4 345 8.8 101430 71
2007-12-04 07:50:19 51°14.447 2°54.691 13 345 8.8 101420 71
2007-12-04 07:50:25 51°14.445 2°54.665 12.5 344 8.8 101420 71
2007-12-04 07:50:29 51°14.442 2°54.647 12.7 347 8.8 101410 71
2007-12-04 07:50:34 51°14.439 2°54.624 13.1 345 8.8 101410 71
2007-12-04 07:50:39 51°14.435 2°54.602 12.2 348 8.8 101410 72
2007-12-04 07:50:45 51°14.431 2°54.575 12.9 350 8.8 101410 72
2007-12-04 07:50:49 51°14.428 2°54.556 11.9 348 8.8 101410 72
2007-12-04 07:50:54 51°14.423 2°54.534 11 348 8.8 101410 72
2007-12-04 07:50:59 51°14.417 2°54.512 12.4 347 8.8 101410 72
2007-12-04 07:51:05 51°14.41 2°54.486 12.2 349 8.8 101410 72
2007-12-04 07:51:09 51°14.406 2°54.468 12.7 349 8.8 101410 72
2007-12-04 07:51:14 51°14.399 2°54.447 12.9 351 8.8 101410 72
2007-12-04 07:51:19 51°14.394 2°54.423 11.7 349 8.8 101410 72
2007-12-04 07:51:25 51°14.386 2°54.397 13 349 8.8 101410 72
2007-12-04 07:51:29 51°14.381 2°54.379 11.7 345 8.9 101410 72
2007-12-04 07:51:34 51°14.375 2°54.357 10.9 342 8.9 101410 72
2007-12-04 07:51:40 51°14.367 2°54.331 12 347 8.8 101410 72
2007-12-04 07:51:44 51°14.363 2°54.312 12 347 8.8 101410 72
2007-12-04 07:51:49 51°14.357 2°54.291 12.1 349 8.9 101410 72
2007-12-04 07:51:55 51°14.351 2°54.263 11.9 342 8.9 101410 72
2007-12-04 07:52:00 51°14.343 2°54.242 13.5 349 8.9 101410 72
2007-12-04 07:52:04 51°14.34 2°54.223 12.3 347 8.9 101410 72
2007-12-04 07:52:09 51°14.332 2°54.202 12.1 347 8.9 101410 72
2007-12-04 07:52:14 51°14.326 2°54.18 11.5 345 8.9 101410 72
2007-12-04 07:52:20 51°14.319 2°54.152 11.7 350 8.8 101410 72
2007-12-04 07:52:24 51°14.314 2°54.134 13 347 8.8 101410 72
2007-12-04 07:52:29 51°14.308 2°54.112 12.8 346 8.9 101420 72
2007-12-04 07:52:34 51°14.302 2°54.09 13.8 346 8.9 101420 72
2007-12-04 07:52:40 51°14.295 2°54.063 12.5 348 8.9 101420 73
2007-12-04 07:52:45 51°14.289 2°54.04 11.7 343 8.9 101420 73
2007-12-04 07:52:49 51°14.283 2°54.022 11.8 345 8.9 101420 73
2007-12-04 07:52:53 51°14.279 2°54.004 12.8 342 8.9 101420 73
2007-12-04 07:52:59 51°14.271 2°53.977 13.2 347 8.9 101420 73
2007-12-04 07:53:05 51°14.265 2°53.95 12.9 343 8.9 101420 73
2007-12-04 07:53:09 51°14.259 2°53.932 13.2 349 8.9 101420 73
2007-12-04 07:53:14 51°14.255 2°53.909 12.7 344 8.9 101420 73
2007-12-04 07:53:19 51°14.247 2°53.887 12.4 347 8.9 101420 73
2007-12-04 07:53:25 51°14.239 2°53.861 14.3 348 8.9 101420 73
2007-12-04 07:53:29 51°14.235 2°53.842 12.6 346 8.9 101420 72
2007-12-04 07:53:34 51°14.227 2°53.82 12.1 346 8.9 101420 72
2007-12-04 07:53:39 51°14.221 2°53.798 13.5 347 8.9 101420 72
2007-12-04 07:53:45 51°14.212 2°53.772 12.5 346 8.9 101420 72
2007-12-04 07:53:49 51°14.206 2°53.754 13.5 349 8.9 101420 72
2007-12-04 07:53:53 51°14.202 2°53.737 13.1 346 8.9 101420 72
2007-12-04 07:53:59 51°14.192 2°53.711 13.1 346 8.9 101410 72
2007-12-04 07:54:05 51°14.183 2°53.686 13.1 282 8.9 101410 72
2007-12-04 07:54:09 51°14.178 2°53.669 12.6 348 8.9 101420 72
2007-12-04 07:54:15 51°14.168 2°53.644 12.9 349 8.9 101420 72
2007-12-04 07:54:20 51°14.161 2°53.622 12.2 348 8.9 101390 71
2007-12-04 07:54:24 51°14.155 2°53.605 13 346 8.9 101390 71
2007-12-04 07:54:29 51°14.146 2°53.584 13.8 350 8.9 101390 72
2007-12-04 07:54:34 51°14.14 2°53.562 13.5 347 8.9 101390 72
2007-12-04 07:54:40 51°14.13 2°53.537 14.1 349 8.9 101390 72
2007-12-04 07:54:44 51°14.126 2°53.519 12.4 345 8.9 101390 72
2007-12-04 07:54:49 51°14.117 2°53.499 14.3 351 8.9 101390 71
2007-12-04 07:54:54 51°14.11 2°53.476 13.6 351 8.9 101390 71
2007-12-04 07:55:00 51°14.101 2°53.45 12.3 348 8.8 101380 71
2007-12-04 07:55:04 51°14.094 2°53.434 11.4 349 8.8 101380 71
2007-12-04 07:55:09 51°14.088 2°53.411 11.4 347 8.9 101390 72
2007-12-04 07:55:13 51°14.08 2°53.395 13.7 353 8.9 101390 72
2007-12-04 07:55:19 51°14.073 2°53.368 11.9 350 8.9 101390 72
2007-12-04 07:55:25 51°14.063 2°53.342 12.8 352 8.9 101390 72
2007-12-04 07:55:29 51°14.058 2°53.325 12 348 8.9 101390 71
2007-12-04 07:55:34 51°14.049 2°53.304 11.6 348 8.9 101390 71
2007-12-04 07:55:39 51°14.042 2°53.281 12 351 8.9 101380 72
2007-12-04 07:55:44 51°14.035 2°53.259 12.2 351 8.9 101380 72
2007-12-04 07:55:49 51°14.027 2°53.238 10.9 347 8.9 101380 71
2007-12-04 07:55:54 51°14.019 2°53.216 12.6 347 8.9 101380 71
2007-12-04 07:55:59 51°14.011 2°53.194 11.4 350 8.9 101390 72
2007-12-04 07:56:04 51°14.004 2°53.172 11.5 349 8.9 101390 72
2007-12-04 07:56:09 51°13.995 2°53.152 12.6 352 9 101390 73
2007-12-04 07:56:14 51°13.988 2°53.13 10.9 350 9 101390 73
2007-12-04 07:56:20 51°13.978 2°53.105 12.7 351 8.9 101390 73
2007-12-04 07:56:25 51°13.968 2°53.085 11.9 353 8.9 101390 73
2007-12-04 07:56:29 51°13.962 2°53.067 11.4 351 8.9 101390 72
2007-12-04 07:56:34 51°13.952 2°53.049 11.9 352 8.9 101390 72
2007-12-04 07:56:40 51°13.943 2°53.022 9.9 349 8.9 101380 72
2007-12-04 07:56:45 51°13.932 2°53.004 12.4 354 8.9 101380 72
2007-12-04 07:56:49 51°13.927 2°52.986 11.4 351 8.9 101390 72
2007-12-04 07:56:54 51°13.916 2°52.967 12.9 354 8.9 101390 72
2007-12-04 07:56:59 51°13.909 2°52.945 10.7 352 8.9 101390 73
2007-12-04 07:57:05 51°13.896 2°52.924 12.6 355 8.9 101390 73
2007-12-04 07:57:09 51°13.89 2°52.905 11 350 8.9 101400 73
2007-12-04 07:57:14 51°13.879 2°52.887 12.3 355 8.9 101400 73
2007-12-04 07:57:19 51°13.871 2°52.866 11.5 346 8.9 101390 72
2007-12-04 07:57:25 51°13.858 2°52.844 12.5 355 8.9 101390 72
2007-12-04 07:57:29 51°13.852 2°52.827 10 348 8.9 101400 73
2007-12-04 07:57:34 51°13.84 2°52.81 12.9 355 8.9 101400 73
2007-12-04 07:57:39 51°13.833 2°52.787 11 351 8.9 101400 73
2007-12-04 07:57:45 51°13.82 2°52.766 11.2 350 8.9 101400 73
2007-12-04 07:57:49 51°13.811 2°52.752 12.9 356 8.9 101400 73
2007-12-04 07:57:54 51°13.802 2°52.731 10 345 8.9 101400 73
2007-12-04 07:57:59 51°13.791 2°52.714 13.1 351 8.9 101390 72
2007-12-04 07:58:04 51°13.783 2°52.693 11.6 279 8.9 101390 72
2007-12-04 07:58:09 51°13.772 2°52.675 12 352 8.9 101390 72
2007-12-04 07:58:13 51°13.765 2°52.658 10.6 351 8.9 101390 72
2007-12-04 07:58:19 51°13.753 2°52.635 13.2 353 8.9 101400 72
2007-12-04 07:58:24 51°13.745 2°52.614 11.7 351 8.9 101400 72
2007-12-04 07:58:29 51°13.734 2°52.595 12.1 354 8.9 101400 72
2007-12-04 07:58:35 51°13.723 2°52.573 13.5 352 8.9 101400 72
2007-12-04 07:58:39 51°13.715 2°52.557 12.1 353 8.9 101400 72
2007-12-04 07:58:44 51°13.706 2°52.537 11.1 349 8.9 101400 72
2007-12-04 07:58:49 51°13.695 2°52.519 12.3 349 8.9 101390 72
2007-12-04 07:58:55 51°13.685 2°52.494 12.7 347 8.9 101390 72
2007-12-04 07:58:59 51°13.676 2°52.479 14.3 347 8.9 101400 72
2007-12-04 07:59:04 51°13.667 2°52.459 12 351 8.9 101400 72
2007-12-04 07:59:09 51°13.658 2°52.44 12.3 351 8.9 101400 72
2007-12-04 07:59:13 51°13.649 2°52.426 12.6 353 8.9 101400 72
2007-12-04 07:59:19 51°13.639 2°52.401 12.6 352 8.9 101400 72
2007-12-04 07:59:25 51°13.627 2°52.379 11.9 349 8.9 101400 72
2007-12-04 07:59:29 51°13.619 2°52.363 10.9 355 8.9 101400 71
2007-12-04 07:59:34 51°13.611 2°52.342 11.3 352 8.9 101400 71
2007-12-04 07:59:39 51°13.6 2°52.324 11.5 353 8.9 101390 71
2007-12-04 07:59:45 51°13.591 2°52.299 10.3 351 8.9 101390 71
2007-12-04 07:59:49 51°13.582 2°52.285 11.5 354 8.9 101410 71
2007-12-04 07:59:55 51°13.572 2°52.26 10.6 281 8.9 101410 71
2007-12-04 07:59:59 51°13.562 2°52.247 13 354 8.9 101410 71
2007-12-04 08:00:05 51°13.551 2°52.223 10.8 351 8.9 101410 71
2007-12-04 08:00:09 51°13.543 2°52.208 10.2 353 8.9 101440 72
2007-12-04 08:00:15 51°13.533 2°52.185 10.1 349 8.9 101440 72
2007-12-04 08:00:19 51°13.524 2°52.171 11.6 353 8.9 101400 72
2007-12-04 08:00:24 51°13.515 2°52.151 11.5 352 8.9 101400 72
2007-12-04 08:00:29 51°13.505 2°52.134 12.4 349 8.9 101410 72
2007-12-04 08:00:34 51°13.496 2°52.115 11.1 352 8.9 101410 72
2007-12-04 08:00:39 51°13.487 2°52.095 12 351 8.9 101450 72
2007-12-04 08:00:44 51°13.477 2°52.077 11.9 352 8.9 101450 72
2007-12-04 08:00:49 51°13.468 2°52.059 11.5 346 8.9 101410 72
2007-12-04 08:00:53 51°13.459 2°52.045 11.2 354 8.9 101410 72
2007-12-04 08:00:59 51°13.449 2°52.021 12.5 348 8.9 101410 72
2007-12-04 08:01:04 51°13.439 2°52.004 11.9 352 8.9 101410 72
2007-12-04 08:01:09 51°13.43 2°51.983 11 351 8.9 101410 72
2007-12-04 08:01:14 51°13.42 2°51.966 11.9 353 8.9 101410 72
2007-12-04 08:01:20 51°13.41 2°51.942 11.9 349 8.9 101410 72
2007-12-04 08:01:24 51°13.4 2°51.929 13.5 358 8.9 101410 72
2007-12-04 08:01:29 51°13.393 2°51.908 9.1 352 8.9 101420 72
2007-12-04 08:01:34 51°13.381 2°51.892 12.5 352 8.9 101420 72
2007-12-04 08:01:40 51°13.373 2°51.868 10.7 350 8.9 101420 72
2007-12-04 08:01:44 51°13.364 2°51.856 12.6 356 8.9 101420 72
2007-12-04 08:01:49 51°13.356 2°51.836 11.9 355 9 101410 72
2007-12-04 08:01:54 51°13.347 2°51.82 11.1 356 9 101410 72
2007-12-04 08:01:59 51°13.339 2°51.802 10.8 354 8.9 101420 72
2007-12-04 08:02:05 51°13.329 2°51.783 10.4 353 8.9 101420 72
2007-12-04 08:02:09 51°13.323 2°51.769 9.5 354 8.9 101420 71
2007-12-04 08:02:14 51°13.315 2°51.753 9.4 350 8.9 101420 71
2007-12-04 08:02:19 51°13.308 2°51.739 9.4 351 8.9 101430 71
2007-12-04 08:02:25 51°13.301 2°51.722 9.3 350 8.9 101430 71
2007-12-04 08:02:29 51°13.295 2°51.712 9.9 354 9 101440 72
2007-12-04 08:02:34 51°13.291 2°51.699 7.1 349 9 101440 72
2007-12-04 08:02:39 51°13.283 2°51.69 9.8 357 9 101430 73
2007-12-04 08:02:44 51°13.28 2°51.678 8.8 357 9 101430 73
2007-12-04 08:02:49 51°13.274 2°51.67 8.2 357 9 101450 73
2007-12-04 08:02:55 51°13.267 2°51.661 9.6 360 9 101450 73
2007-12-04 08:02:59 51°13.264 2°51.652 8.7 353 9 101450 73
2007-12-04 08:03:04 51°13.258 2°51.644 9.8 356 9 101450 73
2007-12-04 08:03:09 51°13.254 2°51.634 10.1 355 9 101460 73
2007-12-04 08:03:15 51°13.247 2°51.623 9.5 356 9 101460 73
2007-12-04 08:03:19 51°13.243 2°51.616 10.4 356 9 101450 73
2007-12-04 08:03:24 51°13.237 2°51.605 10.5 358 9 101450 73
2007-12-04 08:03:29 51°13.231 2°51.594 9.7 356 9 101460 73
2007-12-04 08:03:34 51°13.224 2°51.583 11.8 358 9 101460 73
2007-12-04 08:03:39 51°13.219 2°51.57 9.3 353 8.9 101460 72
2007-12-04 08:03:44 51°13.212 2°51.56 10 358 8.9 101460 72
2007-12-04 08:03:49 51°13.207 2°51.549 9.8 355 8.9 101450 71
2007-12-04 08:03:53 51°13.202 2°51.541 9.5 356 8.9 101450 71
2007-12-04 08:03:59 51°13.198 2°51.529 8.9 354 8.9 101450 71
2007-12-04 08:04:05 51°13.194 2°51.518 9.6 357 8.9 101450 71
2007-12-04 08:04:09 51°13.192 2°51.511 9 354 8.9 101460 72
2007-12-04 08:04:14 51°13.19 2°51.504 9 352 8.9 101460 72
2007-12-04 08:04:19 51°13.189 2°51.496 8.1 347 8.9 101460 72
2007-12-04 08:04:25 51°13.188 2°51.488 8.4 348 8.9 101460 72
2007-12-04 08:04:29 51°13.188 2°51.483 7.8 347 8.9 101470 72
2007-12-04 08:04:34 51°13.188 2°51.476 8.2 344 8.9 101470 72
2007-12-04 08:04:39 51°13.188 2°51.47 6.9 344 9 101470 72
2007-12-04 08:04:44 51°13.189 2°51.465 7.5 284 9 101470 72
2007-12-04 08:04:49 51°13.19 2°51.459 8.3 339 9 101470 73
2007-12-04 08:04:54 51°13.192 2°51.453 8.7 335 9 101470 73
2007-12-04 08:05:00 51°13.195 2°51.447 7.6 333 9 101480 73
2007-12-04 08:05:05 51°13.198 2°51.442 7 279 9 101480 73
2007-12-04 08:05:09 51°13.201 2°51.437 7.4 327 9 101480 73
2007-12-04 08:05:14 51°13.204 2°51.432 9.3 327 9 101480 73
2007-12-04 08:05:20 51°13.209 2°51.424 9.7 330 9 101480 73
2007-12-04 08:05:25 51°13.213 2°51.419 9.1 283 9 101480 73
2007-12-04 08:05:29 51°13.217 2°51.414 9.6 330 9 101480 73
2007-12-04 08:05:34 51°13.221 2°51.406 9.8 327 9 101480 73
2007-12-04 08:05:39 51°13.226 2°51.399 9.6 330 9 101470 73
2007-12-04 08:05:45 51°13.232 2°51.391 10.1 333 9 101470 73
2007-12-04 08:05:49 51°13.236 2°51.384 10.2 331 8.9 101470 73
2007-12-04 08:05:54 51°13.241 2°51.376 10.5 329 8.9 101470 73
2007-12-04 08:06:00 51°13.249 2°51.367 10.3 325 9 101470 72
2007-12-04 08:06:05 51°13.256 2°51.361 9.6 306 9 101470 72
2007-12-04 08:06:09 51°13.262 2°51.357 10.8 321 8.9 101480 72
2007-12-04 08:06:14 51°13.27 2°51.354 9.3 307 8.9 101480 72
2007-12-04 08:06:20 51°13.28 2°51.353 9.9 22 8.9 101470 72
2007-12-04 08:06:25 51°13.288 2°51.353 9.1 309 8.9 101470 72
2007-12-04 08:06:29 51°13.296 2°51.354 9.4 19 8.9 101470 72
2007-12-04 08:06:34 51°13.305 2°51.355 8.6 303 8.9 101470 72
2007-12-04 08:06:39 51°13.314 2°51.357 9.8 19 8.9 101480 71
2007-12-04 08:06:44 51°13.324 2°51.359 8.2 279 8.9 101480 71
2007-12-04 08:06:49 51°13.334 2°51.362 9.6 19 8.9 101470 72
2007-12-04 08:06:53 51°13.341 2°51.365 9.7 305 8.9 101470 72
2007-12-04 08:06:59 51°13.353 2°51.368 9.5 24 8.9 101480 72
2007-12-04 08:07:04 51°13.363 2°51.371 10.6 303 8.9 101480 72
2007-12-04 08:07:09 51°13.372 2°51.375 10.4 24 9 101470 72
2007-12-04 08:07:15 51°13.384 2°51.378 9.5 306 9 101470 72
2007-12-04 08:07:20 51°13.394 2°51.381 8.7 23 9 101470 72
2007-12-04 08:07:25 51°13.403 2°51.384 9.6 282 9 101470 72
2007-12-04 08:07:29 51°13.41 2°51.386 7.8 24 9 101480 72
2007-12-04 08:07:34 51°13.417 2°51.388 10.9 307 9 101480 72
2007-12-04 08:07:39 51°13.424 2°51.391 10 19 9 101470 72
2007-12-04 08:07:44 51°13.43 2°51.393 7.2 303 9 101470 72
2007-12-04 08:07:49 51°13.435 2°51.396 7.3 21 9 101470 71
2007-12-04 08:07:54 51°13.44 2°51.398 7.5 306 9 101470 71
2007-12-04 08:08:00 51°13.445 2°51.401 8.2 19 8.9 101490 71
2007-12-04 08:08:04 51°13.448 2°51.403 8.1 303 8.9 101490 71
2007-12-04 08:08:09 51°13.452 2°51.406 8.4 27 8.9 101480 71
2007-12-04 08:08:14 51°13.455 2°51.409 7.6 306 8.9 101480 71
2007-12-04 08:08:19 51°13.457 2°51.412 5.8 26 9 101480 71
2007-12-04 08:08:24 51°13.46 2°51.415 8.6 302 9 101480 71
2007-12-04 08:08:29 51°13.462 2°51.418 8.6 25 8.9 101480 71
2007-12-04 08:08:34 51°13.464 2°51.421 7.9 302 8.9 101480 71
2007-12-04 08:08:39 51°13.466 2°51.425 6 21 9 101480 71
2007-12-04 08:08:44 51°13.468 2°51.428 6.4 309 9 101480 71
2007-12-04 08:08:49 51°13.47 2°51.431 6.3 19 9 101490 72
2007-12-04 08:08:53 51°13.471 2°51.434 5.9 310 9 101490 72
2007-12-04 08:08:59 51°13.473 2°51.438 8.4 19 9 101480 72
2007-12-04 08:09:04 51°13.474 2°51.441 6.5 305 9 101480 72
2007-12-04 08:09:09 51°13.476 2°51.444 6.2 25 9 101480 72
2007-12-04 08:09:15 51°13.477 2°51.448 6.1 302 9 101480 72
2007-12-04 08:09:19 51°13.478 2°51.451 5.5 251 9 101480 72
2007-12-04 08:09:24 51°13.479 2°51.454 8.9 306 9 101480 72
2007-12-04 08:09:29 51°13.48 2°51.458 6.2 21 9 101490 72
2007-12-04 08:09:34 51°13.482 2°51.462 8.1 306 9 101490 72
2007-12-04 08:09:39 51°13.483 2°51.465 8.1 251 9 101490 71
2007-12-04 08:09:44 51°13.484 2°51.469 7.7 303 9 101490 71
2007-12-04 08:09:49 51°13.485 2°51.472 5.7 251 9 101490 72
2007-12-04 08:09:53 51°13.486 2°51.475 5.8 305 9 101490 72
2007-12-04 08:09:59 51°13.487 2°51.48 6.8 255 9 101490 72
2007-12-04 08:10:04 51°13.488 2°51.484 6.7 309 9 101490 72
2007-12-04 08:10:09 51°13.489 2°51.487 7.8 256 9 101490 72
2007-12-04 08:10:14 51°13.49 2°51.49 5.9 309 9 101490 72
2007-12-04 08:10:20 51°13.491 2°51.495 7.8 254 9 101500 72
2007-12-04 08:10:24 51°13.491 2°51.498 6.3 307 9 101500 72
2007-12-04 08:10:29 51°13.492 2°51.502 8.7 254 9 101490 72
2007-12-04 08:10:34 51°13.493 2°51.506 9 304 9 101490 72
2007-12-04 08:10:40 51°13.494 2°51.51 7.7 257 9 101500 72
2007-12-04 08:10:44 51°13.495 2°51.513 8.4 304 9 101500 72
2007-12-04 08:10:49 51°13.496 2°51.516 7 258 9 101500 71
2007-12-04 08:10:54 51°13.496 2°51.52 7.2 308 9 101500 71
2007-12-04 08:10:59 51°13.497 2°51.523 6.1 258 9 101480 71
2007-12-04 08:11:05 51°13.498 2°51.528 7.1 303 9 101480 71
2007-12-04 08:11:09 51°13.499 2°51.53 6.7 255 9 101490 71
2007-12-04 08:11:14 51°13.499 2°51.534 5.6 309 9 101490 71
2007-12-04 08:11:19 51°13.5 2°51.538 7.5 256 9 101500 71
2007-12-04 08:11:25 51°13.501 2°51.542 7.6 302 9 101500 71
2007-12-04 08:11:29 51°13.501 2°51.545 7.4 257 9 101490 71
2007-12-04 08:11:34 51°13.502 2°51.548 5.8 307 9 101490 71
2007-12-04 08:11:39 51°13.503 2°51.552 9.4 256 9 101500 71
2007-12-04 08:11:44 51°13.503 2°51.555 5.7 305 9 101500 71
2007-12-04 08:11:49 51°13.504 2°51.56 6.8 258 9 101490 71
2007-12-04 08:11:55 51°13.505 2°51.564 8 305 9 101490 71
2007-12-04 08:11:59 51°13.505 2°51.566 6.6 256 8.9 101480 71
2007-12-04 08:12:04 51°13.506 2°51.57 8 302 8.9 101480 71
2007-12-04 08:12:09 51°13.507 2°51.573 5.5 258 8.9 101490 71
2007-12-04 08:12:15 51°13.507 2°51.577 7.9 309 8.9 101490 71
2007-12-04 08:12:19 51°13.507 2°51.58 6.7 263 8.9 101480 71
2007-12-04 08:12:24 51°13.508 2°51.584 6.4 301 8.9 101480 71
2007-12-04 08:12:29 51°13.509 2°51.587 5.6 261 8.9 101490 71
2007-12-04 08:12:35 51°13.509 2°51.591 9.3 304 8.9 101490 71
2007-12-04 08:12:39 51°13.51 2°51.594 7.7 261 8.9 101500 70
2007-12-04 08:12:44 51°13.511 2°51.597 7.1 303 8.9 101500 70
2007-12-04 08:12:49 51°13.511 2°51.602 8.6 258 8.9 101490 70
2007-12-04 08:12:53 51°13.511 2°51.603 6.3 302 8.9 101490 70
2007-12-04 08:12:59 51°13.512 2°51.608 8.8 259 8.9 101500 70
2007-12-04 08:13:05 51°13.513 2°51.611 5.8 304 8.9 101500 70
2007-12-04 08:13:09 51°13.512 2°51.615 6.9 257 8.9 101500 70
2007-12-04 08:13:14 51°13.514 2°51.617 6.4 309 8.9 101500 70
2007-12-04 08:13:19 51°13.514 2°51.621 9.3 257 8.9 101500 70
2007-12-04 08:13:25 51°13.514 2°51.625 7.2 306 8.9 101500 70
2007-12-04 08:13:29 51°13.515 2°51.627 7.2 255 9 101500 70
2007-12-04 08:13:34 51°13.515 2°51.631 6.7 310 9 101500 70
2007-12-04 08:13:39 51°13.515 2°51.634 7.4 261 8.9 101510 71
2007-12-04 08:13:44 51°13.516 2°51.638 8.5 281 8.9 101510 71
2007-12-04 08:13:49 51°13.517 2°51.641 4.5 264 8.9 101490 71
2007-12-04 08:13:54 51°13.517 2°51.645 4.4 302 8.9 101490 71
2007-12-04 08:14:00 51°13.517 2°51.649 7.1 261 8.9 101510 71
2007-12-04 08:14:05 51°13.518 2°51.652 6.7 279 8.9 101510 71
2007-12-04 08:14:09 51°13.518 2°51.654 6.9 259 9 101490 71
2007-12-04 08:14:14 51°13.519 2°51.658 3.8 307 9 101490 71
2007-12-04 08:14:20 51°13.519 2°51.662 6.6 260 9 101500 71
2007-12-04 08:14:25 51°13.519 2°51.665 6.2 280 9 101500 71
2007-12-04 08:14:29 51°13.519 2°51.669 8.2 259 9 101500 71
2007-12-04 08:14:34 51°13.52 2°51.672 6.9 310 9 101500 71
2007-12-04 08:14:39 51°13.521 2°51.675 8.7 261 9 101510 71
2007-12-04 08:14:45 51°13.521 2°51.68 8.9 305 9 101510 71
2007-12-04 08:14:49 51°13.522 2°51.682 6.8 261 9 101510 71
2007-12-04 08:14:54 51°13.522 2°51.686 6.3 310 9 101510 71
2007-12-04 08:15:00 51°13.522 2°51.69 5.2 261 9 101490 71
2007-12-04 08:15:05 51°13.523 2°51.693 8.4 310 9 101490 71
2007-12-04 08:15:09 51°13.523 2°51.696 6.7 259 9 101500 71
2007-12-04 08:15:14 51°13.524 2°51.701 5.8 302 9 101500 71
2007-12-04 08:15:19 51°13.526 2°51.705 4.3 266 9 101500 71
2007-12-04 08:15:25 51°13.527 2°51.713 5.9 307 9 101500 71
2007-12-04 08:15:29 51°13.529 2°51.718 6.3 269 9 101510 71
2007-12-04 08:15:34 51°13.531 2°51.726 5.2 58 9 101510 71
2007-12-04 08:15:39 51°13.533 2°51.735 6.6 25 9 101490 71
2007-12-04 08:15:45 51°13.534 2°51.747 6 52 9 101490 71
2007-12-04 08:15:49 51°13.535 2°51.755 4.3 24 9 101500 71
2007-12-04 08:15:53 51°13.536 2°51.764 4.7 56 9 101500 71
2007-12-04 08:15:59 51°13.536 2°51.778 3.7 20 9 101500 71
2007-12-04 08:16:04 51°13.535 2°51.789 3.2 50 9 101500 71
2007-12-04 08:16:09 51°13.533 2°51.8 2.4 21 9 101490 72
2007-12-04 08:16:15 51°13.529 2°51.812 1.8 30 9 101490 72
2007-12-04 08:16:19 51°13.527 2°51.82 2.1 31 9 101490 72
2007-12-04 08:16:24 51°13.522 2°51.828 4.2 31 9 101490 72
2007-12-04 08:16:29 51°13.517 2°51.834 4.5 36 9 101490 72
2007-12-04 08:16:35 51°13.511 2°51.842 4.9 30 9 101490 72
2007-12-04 08:16:39 51°13.506 2°51.845 5 28 9 101490 72
2007-12-04 08:16:44 51°13.5 2°51.848 6.6 20 9 101490 72
2007-12-04 08:16:49 51°13.494 2°51.849 6.8 17 9 101480 73
2007-12-04 08:16:53 51°13.49 2°51.85 7.4 13 9 101480 73
2007-12-04 08:16:59 51°13.484 2°51.848 5.9 8 9.1 101480 73
2007-12-04 08:17:05 51°13.477 2°51.845 6 2 9.1 101480 73
2007-12-04 08:17:09 51°13.473 2°51.842 6.5 1 9.1 101470 73
2007-12-04 08:17:15 51°13.468 2°51.836 6.8 358 9.1 101470 73
2007-12-04 08:17:20 51°13.463 2°51.83 7.2 359 9.1 101480 72
2007-12-04 08:17:25 51°13.457 2°51.825 8.2 -999 9.1 101480 72
2007-12-04 08:17:29 51°13.453 2°51.82 7.9 358 9.1 101480 73
2007-12-04 08:17:34 51°13.448 2°51.814 7.6 357 9.1 101480 73
2007-12-04 08:17:39 51°13.442 2°51.807 8.7 359 9.1 101480 72
2007-12-04 08:17:45 51°13.435 2°51.8 8.8 3 9.1 101480 72
2007-12-04 08:17:49 51°13.43 2°51.793 7.5 358 9 101470 72
2007-12-04 08:17:54 51°13.423 2°51.787 9.2 359 9 101470 72
2007-12-04 08:18:00 51°13.416 2°51.777 7.9 354 9 101470 72
2007-12-04 08:18:05 51°13.409 2°51.771 9.4 2 9 101470 72
2007-12-04 08:18:09 51°13.405 2°51.764 8.9 357 9 101470 72
2007-12-04 08:18:14 51°13.397 2°51.759 8.9 2 9 101470 72
2007-12-04 08:18:20 51°13.39 2°51.748 8.9 358 9 101480 73
2007-12-04 08:18:25 51°13.382 2°51.742 8.7 5 9 101480 73
2007-12-04 08:18:29 51°13.378 2°51.734 8.4 356 9 101480 72
2007-12-04 08:18:34 51°13.37 2°51.729 8.4 1 9 101480 72
2007-12-04 08:18:40 51°13.363 2°51.719 8.7 359 9 101480 70
2007-12-04 08:18:44 51°13.358 2°51.712 8.1 359 9 101480 70
2007-12-04 08:18:49 51°13.351 2°51.704 8.5 1 9 101470 70
2007-12-04 08:18:55 51°13.343 2°51.695 10.3 359 9 101470 70
2007-12-04 08:19:00 51°13.338 2°51.685 8.1 358 8.9 101480 69
2007-12-04 08:19:04 51°13.333 2°51.68 9.2 356 8.9 101480 69
2007-12-04 08:19:09 51°13.326 2°51.671 9.2 357 9 101480 69
2007-12-04 08:19:14 51°13.321 2°51.662 9.2 357 9 101480 69
2007-12-04 08:19:20 51°13.313 2°51.653 9.5 1 9 101470 69
2007-12-04 08:19:24 51°13.309 2°51.644 9.2 357 9 101470 69
2007-12-04 08:19:29 51°13.302 2°51.636 9 359 8.9 101480 69
2007-12-04 08:19:34 51°13.296 2°51.626 8.9 357 8.9 101480 69
2007-12-04 08:19:40 51°13.288 2°51.617 9.7 359 9 101480 69
2007-12-04 08:19:44 51°13.285 2°51.607 8.7 356 9 101480 69
2007-12-04 08:19:49 51°13.278 2°51.599 10.2 -999 9 101480 69
2007-12-04 08:19:53 51°13.274 2°51.59 8.1 354 9 101480 69
2007-12-04 08:19:59 51°13.267 2°51.579 8.5 356 9 101490 68
2007-12-04 08:20:05 51°13.261 2°51.566 8.8 355 9 101490 68
2007-12-04 08:20:09 51°13.256 2°51.559 10.1 355 9 101480 68
2007-12-04 08:20:14 51°13.252 2°51.549 8.5 355 9 101480 68
2007-12-04 08:20:19 51°13.247 2°51.54 9.3 355 9 101480 69
2007-12-04 08:20:25 51°13.242 2°51.53 10.3 353 9 101480 69
2007-12-04 08:20:29 51°13.24 2°51.522 9 351 9 101490 69
2007-12-04 08:20:34 51°13.237 2°51.514 9.4 354 9 101490 69
2007-12-04 08:20:39 51°13.236 2°51.506 9.9 351 9 101480 70
2007-12-04 08:20:44 51°13.235 2°51.498 9.9 351 9 101480 70
2007-12-04 08:20:49 51°13.234 2°51.491 9.6 344 9 101490 70
2007-12-04 08:20:54 51°13.234 2°51.485 9.6 345 9 101490 70
2007-12-04 08:21:00 51°13.235 2°51.477 7.7 341 9 101490 70
2007-12-04 08:21:05 51°13.236 2°51.471 8.2 283 9 101490 70
2007-12-04 08:21:09 51°13.237 2°51.466 7.7 339 9 101490 70
2007-12-04 08:21:14 51°13.238 2°51.459 9 281 9 101490 70
2007-12-04 08:21:20 51°13.241 2°51.452 9.4 337 9 101490 70
2007-12-04 08:21:25 51°13.243 2°51.445 9 278 9 101490 70
2007-12-04 08:21:29 51°13.245 2°51.44 9.4 337 9 101490 70
2007-12-04 08:21:34 51°13.247 2°51.433 9.3 278 9 101490 70
2007-12-04 08:21:39 51°13.251 2°51.426 9.5 336 9 101490 71
2007-12-04 08:21:45 51°13.254 2°51.417 8.6 335 9 101490 71
2007-12-04 08:21:49 51°13.257 2°51.411 8.6 333 9 101490 71
2007-12-04 08:21:54 51°13.26 2°51.403 9.7 332 9 101490 71
2007-12-04 08:22:00 51°13.265 2°51.395 9.7 331 9 101480 70
2007-12-04 08:22:05 51°13.269 2°51.387 9.6 329 9 101480 70
2007-12-04 08:22:09 51°13.273 2°51.382 8.8 329 9 101490 70
2007-12-04 08:22:14 51°13.277 2°51.376 8.9 329 9 101490 70
2007-12-04 08:22:20 51°13.282 2°51.369 7.6 331 9 101490 71
2007-12-04 08:22:25 51°13.286 2°51.363 8.2 334 9 101490 71
2007-12-04 08:22:29 51°13.289 2°51.359 9.3 332 9 101500 71
2007-12-04 08:22:34 51°13.294 2°51.352 8.5 332 9 101500 71
2007-12-04 08:22:39 51°13.298 2°51.346 9.8 329 9 101490 71
2007-12-04 08:22:45 51°13.304 2°51.338 7.9 327 9 101490 71
2007-12-04 08:22:49 51°13.307 2°51.333 7.9 327 9.1 101490 71
2007-12-04 08:22:53 51°13.312 2°51.329 9.3 324 9.1 101490 71
2007-12-04 08:22:59 51°13.319 2°51.323 7.9 323 9.1 101490 71
2007-12-04 08:23:04 51°13.324 2°51.318 8.6 306 9.1 101490 71
2007-12-04 08:23:09 51°13.331 2°51.314 6.7 317 9 101490 71
2007-12-04 08:23:15 51°13.338 2°51.31 9.6 281 9 101490 71
2007-12-04 08:23:19 51°13.343 2°51.309 9.5 315 9 101490 71
2007-12-04 08:23:24 51°13.35 2°51.307 9.1 302 9 101490 71
2007-12-04 08:23:29 51°13.357 2°51.306 7.8 24 9.1 101490 71
2007-12-04 08:23:35 51°13.366 2°51.305 7.1 304 9.1 101490 71
2007-12-04 08:23:39 51°13.371 2°51.305 9 26 9.1 101500 71
2007-12-04 08:23:44 51°13.379 2°51.305 7.8 302 9.1 101500 71
2007-12-04 08:23:49 51°13.386 2°51.306 7.1 24 9 101490 71
2007-12-04 08:23:53 51°13.391 2°51.306 8 307 9 101490 71
2007-12-04 08:23:59 51°13.398 2°51.308 6.9 25 9 101490 71
2007-12-04 08:24:05 51°13.404 2°51.31 7.6 302 9 101490 71
2007-12-04 08:24:09 51°13.408 2°51.311 8.6 20 9.1 101490 71
2007-12-04 08:24:14 51°13.413 2°51.313 7 303 9.1 101490 71
2007-12-04 08:24:20 51°13.417 2°51.317 8.2 25 9 101510 71
2007-12-04 08:24:25 51°13.421 2°51.319 7.9 302 9 101510 71
2007-12-04 08:24:29 51°13.423 2°51.322 6.2 246 9 101490 71
2007-12-04 08:24:34 51°13.426 2°51.325 5.3 304 9 101490 71
2007-12-04 08:24:40 51°13.428 2°51.329 5.4 20 9.1 101500 71
2007-12-04 08:24:45 51°13.43 2°51.332 5.6 304 9.1 101500 71
2007-12-04 08:24:49 51°13.431 2°51.334 5.4 254 9.1 101510 71
2007-12-04 08:24:54 51°13.432 2°51.337 6 310 9.1 101510 71
2007-12-04 08:25:00 51°13.433 2°51.341 8.7 253 9 101500 71
2007-12-04 08:25:05 51°13.434 2°51.344 6.1 304 9 101500 71
2007-12-04 08:25:09 51°13.434 2°51.346 6.8 261 9.1 101510 71
2007-12-04 08:25:14 51°13.434 2°51.349 5.9 279 9.1 101510 71
2007-12-04 08:25:20 51°13.435 2°51.352 3.7 264 9.1 101520 72
2007-12-04 08:25:25 51°13.435 2°51.356 3.8 283 9.1 101520 72
2007-12-04 08:25:29 51°13.436 2°51.358 3.9 261 9.1 101510 72
2007-12-04 08:25:35 51°13.437 2°51.362 4.9 304 9.1 101510 72
2007-12-04 08:25:41 51°13.437 2°51.365 5.2 261 9.1 101500 72
2007-12-04 08:25:46 51°13.438 2°51.369 4.8 304 9.1 101500 72
2007-12-04 08:25:52 51°13.439 2°51.372 3.9 265 9.1 101520 72
2007-12-04 08:25:57 51°13.439 2°51.376 5.4 309 9.1 101520 72
2007-12-04 08:26:03 51°13.44 2°51.38 5.2 265 9.1 101510 72
2007-12-04 08:26:08 51°13.44 2°51.383 5.3 310 9.1 101510 72
2007-12-04 08:26:13 51°13.441 2°51.387 5.7 267 9.1 101510 72
2007-12-04 08:26:18 51°13.442 2°51.39 5.3 304 9.1 101510 72
2007-12-04 08:26:23 51°13.442 2°51.394 4.2 264 9.1 101510 72
2007-12-04 08:26:28 51°13.442 2°51.397 3.8 304 9.1 101510 72
2007-12-04 08:26:33 51°13.443 2°51.4 4.7 266 9.1 101510 71
2007-12-04 08:26:37 51°13.444 2°51.402 5.2 306 9.1 101510 71
2007-12-04 08:26:42 51°13.444 2°51.405 7.2 267 9 101520 71
2007-12-04 08:26:47 51°13.445 2°51.409 5.2 302 9 101520 71
2007-12-04 08:26:52 51°13.446 2°51.412 5.2 267 9.1 101520 71
2007-12-04 08:26:57 51°13.446 2°51.416 5.4 305 9.1 101520 71
2007-12-04 08:27:01 51°13.446 2°51.419 6.8 268 9.1 101520 71
2007-12-04 08:27:06 51°13.447 2°51.422 6 307 9.1 101520 71
2007-12-04 08:27:11 51°13.448 2°51.425 6.2 267 9 101510 71
2007-12-04 08:27:16 51°13.448 2°51.429 5.7 280 9 101510 71
2007-12-04 08:27:21 51°13.449 2°51.431 4.7 24 9.1 101520 71
2007-12-04 08:27:26 51°13.449 2°51.435 6.6 302 9.1 101520 71
2007-12-04 08:27:30 51°13.45 2°51.438 6.6 269 9.1 101520 71
2007-12-04 08:27:35 51°13.451 2°51.441 5.1 302 9.1 101520 71
2007-12-04 08:27:40 51°13.451 2°51.445 5.4 266 9.1 101510 72
2007-12-04 08:27:45 51°13.451 2°51.449 5.6 303 9.1 101510 72
2007-12-04 08:27:49 51°13.452 2°51.45 5.2 266 9.1 101500 72
2007-12-04 08:27:54 51°13.453 2°51.454 5.2 307 9.1 101500 72
2007-12-04 08:27:59 51°13.453 2°51.457 5.4 265 9 101520 71
2007-12-04 08:28:05 51°13.454 2°51.462 4.1 304 9 101520 71
2007-12-04 08:28:09 51°13.455 2°51.464 5.1 265 9 101500 71
2007-12-04 08:28:14 51°13.455 2°51.468 5.2 308 9 101500 71
2007-12-04 08:28:19 51°13.456 2°51.47 5.5 266 9 101520 71
2007-12-04 08:28:25 51°13.456 2°51.475 6 303 9 101520 71
2007-12-04 08:28:29 51°13.457 2°51.477 4.4 265 9 101520 71
2007-12-04 08:28:34 51°13.457 2°51.481 4.5 280 9 101520 71
2007-12-04 08:28:40 51°13.458 2°51.485 5.9 323 9 101500 71
2007-12-04 08:28:45 51°13.458 2°51.489 4.2 307 9 101500 71
2007-12-04 08:28:49 51°13.459 2°51.491 5.8 268 9 101510 71
2007-12-04 08:28:54 51°13.459 2°51.495 5.5 285 9 101510 71
2007-12-04 08:29:00 51°13.459 2°51.499 4.9 266 9 101510 71
2007-12-04 08:29:05 51°13.461 2°51.502 5.7 308 9 101510 71
2007-12-04 08:29:09 51°13.46 2°51.505 5.2 269 9 101510 71
2007-12-04 08:29:15 51°13.461 2°51.509 3.7 279 9 101510 71
2007-12-04 08:29:19 51°13.462 2°51.511 5.2 25 9 101510 71
2007-12-04 08:29:25 51°13.462 2°51.515 4.4 302 9 101510 71
2007-12-04 08:29:29 51°13.463 2°51.518 6.5 266 9.1 101520 71
2007-12-04 08:29:35 51°13.463 2°51.522 5.1 304 9.1 101520 71
2007-12-04 08:29:39 51°13.463 2°51.525 4 264 9.1 101510 72
2007-12-04 08:29:44 51°13.464 2°51.529 4.9 308 9.1 101510 72
2007-12-04 08:29:49 51°13.464 2°51.532 5.1 265 9.1 101510 72
2007-12-04 08:29:55 51°13.465 2°51.536 5.4 303 9.1 101510 72
2007-12-04 08:29:59 51°13.465 2°51.539 5.3 267 9.1 101520 72
2007-12-04 08:30:04 51°13.466 2°51.542 5.4 303 9.1 101520 72
2007-12-04 08:30:09 51°13.466 2°51.546 5.1 263 9.1 101510 71
2007-12-04 08:30:15 51°13.467 2°51.55 5.1 312 9.1 101510 71
2007-12-04 08:30:20 51°13.468 2°51.552 4.2 264 9 101520 71
2007-12-04 08:30:25 51°13.468 2°51.556 4 285 9 101520 71
2007-12-04 08:30:29 51°13.468 2°51.559 4.2 264 9.1 101520 71
2007-12-04 08:30:35 51°13.469 2°51.563 4.9 302 9.1 101520 71
2007-12-04 08:30:40 51°13.47 2°51.566 3.8 264 9.1 101510 72
2007-12-04 08:30:45 51°13.47 2°51.57 4.5 279 9.1 101510 72
2007-12-04 08:30:49 51°13.47 2°51.572 3.5 264 9.1 101520 72
2007-12-04 08:30:55 51°13.471 2°51.576 3.7 302 9.1 101520 72
2007-12-04 08:31:00 51°13.471 2°51.579 4.4 266 9.1 101530 72
2007-12-04 08:31:05 51°13.471 2°51.582 4.1 304 9.1 101530 72
2007-12-04 08:31:09 51°13.472 2°51.585 4.2 264 9.1 101520 73
2007-12-04 08:31:14 51°13.472 2°51.589 4.4 283 9.1 101520 73
2007-12-04 08:31:20 51°13.473 2°51.593 4.5 268 9.1 101520 73
2007-12-04 08:31:25 51°13.474 2°51.596 4.3 56 9.1 101520 73
2007-12-04 08:31:29 51°13.474 2°51.599 3.7 266 9.1 101510 73
2007-12-04 08:31:34 51°13.474 2°51.602 4.6 305 9.1 101510 73
2007-12-04 08:31:39 51°13.475 2°51.606 5.2 267 9.1 101510 73
2007-12-04 08:31:45 51°13.476 2°51.61 3.1 308 9.1 101510 73
2007-12-04 08:31:49 51°13.476 2°51.614 4.3 265 9.1 101520 73
2007-12-04 08:31:54 51°13.478 2°51.618 3.7 309 9.1 101520 73
2007-12-04 08:31:59 51°13.479 2°51.625 4.8 260 9.1 101530 73
2007-12-04 08:32:04 51°13.482 2°51.631 7.5 312 9.1 101530 73
2007-12-04 08:32:09 51°13.485 2°51.637 3.7 264 9.1 101520 72
2007-12-04 08:32:13 51°13.487 2°51.644 6.7 282 9.1 101520 72
2007-12-04 08:32:19 51°13.492 2°51.654 6.1 260 9.1 101530 72
2007-12-04 08:32:24 51°13.496 2°51.663 6.8 303 9.1 101530 72
2007-12-04 08:32:29 51°13.501 2°51.674 5.8 254 9.1 101520 72
2007-12-04 08:32:35 51°13.508 2°51.687 7.6 303 9.1 101520 72
2007-12-04 08:32:40 51°13.514 2°51.7 5.2 252 9.1 101510 72
2007-12-04 08:32:44 51°13.519 2°51.711 7.2 303 9.1 101510 72
2007-12-04 08:32:49 51°13.526 2°51.725 5.7 250 9.1 101530 72
2007-12-04 08:32:55 51°13.534 2°51.745 7.3 309 9.1 101530 72
2007-12-04 08:33:00 51°13.542 2°51.763 6 253 9.1 101490 72
2007-12-04 08:33:04 51°13.548 2°51.777 5.5 303 9.1 101490 72
2007-12-04 08:33:09 51°13.556 2°51.797 4.2 250 9.1 101490 72
2007-12-04 08:33:14 51°13.563 2°51.818 5 306 9.1 101490 72
2007-12-04 08:33:20 51°13.572 2°51.845 4.9 244 9.1 101480 72
2007-12-04 08:33:25 51°13.58 2°51.869 5.1 304 9.1 101480 72
2007-12-04 08:33:29 51°13.585 2°51.889 7.1 247 9 101490 72
2007-12-04 08:33:34 51°13.593 2°51.915 5.6 310 9 101490 72
2007-12-04 08:33:40 51°13.602 2°51.946 5.5 25 9 101490 72
2007-12-04 08:33:45 51°13.609 2°51.974 5.1 304 9 101490 72
2007-12-04 08:33:49 51°13.617 2°51.994 5.8 26 9.1 101470 72
2007-12-04 08:33:54 51°13.623 2°52.022 6.2 308 9.1 101470 72
2007-12-04 08:34:00 51°13.634 2°52.054 6.8 27 9 101480 72
2007-12-04 08:34:05 51°13.643 2°52.081 5.4 285 9 101480 72
2007-12-04 08:34:09 51°13.65 2°52.102 6.3 25 9.1 101470 72
2007-12-04 08:34:14 51°13.657 2°52.13 7.6 281 9.1 101470 72
2007-12-04 08:34:20 51°13.668 2°52.163 4.7 25 9.1 101470 72
2007-12-04 08:34:25 51°13.677 2°52.19 7.3 286 9.1 101470 72
2007-12-04 08:34:29 51°13.685 2°52.211 5 27 9.1 101480 72
2007-12-04 08:34:34 51°13.692 2°52.239 6.1 305 9.1 101480 72
2007-12-04 08:34:40 51°13.704 2°52.271 5.7 24 9.1 101470 72
2007-12-04 08:34:45 51°13.713 2°52.299 7.5 286 9.1 101470 72
2007-12-04 08:34:49 51°13.721 2°52.319 4.4 22 9.1 101480 72
2007-12-04 08:34:54 51°13.728 2°52.348 5.7 309 9.1 101480 72
2007-12-04 08:35:00 51°13.742 2°52.378 5.7 25 9.1 101470 72
2007-12-04 08:35:05 51°13.749 2°52.407 6.9 303 9.1 101470 72
2007-12-04 08:35:09 51°13.757 2°52.427 5.9 26 9.1 101480 72
2007-12-04 08:35:15 51°13.768 2°52.46 5.9 304 9.1 101480 72
2007-12-04 08:35:20 51°13.777 2°52.487 6.1 22 9.1 101480 72
2007-12-04 08:35:25 51°13.787 2°52.514 6 309 9.1 101480 72
2007-12-04 08:35:29 51°13.795 2°52.534 4.4 22 9.1 101500 72
2007-12-04 08:35:34 51°13.804 2°52.561 5.2 307 9.1 101500 72
2007-12-04 08:35:40 51°13.815 2°52.593 5.4 21 9.1 101480 72
2007-12-04 08:35:45 51°13.825 2°52.62 5.6 307 9.1 101480 72
2007-12-04 08:35:49 51°13.832 2°52.641 4.6 27 9.1 101480 72
2007-12-04 08:35:54 51°13.84 2°52.668 6.3 307 9.1 101480 72
2007-12-04 08:35:59 51°13.851 2°52.695 4.9 20 9.1 101480 72
2007-12-04 08:36:05 51°13.862 2°52.728 6 302 9.1 101480 72
2007-12-04 08:36:09 51°13.869 2°52.749 6.1 242 9.1 101480 72
2007-12-04 08:36:14 51°13.878 2°52.776 7.9 280 9.1 101480 72
2007-12-04 08:36:19 51°13.888 2°52.802 4.8 24 9.1 101480 72
2007-12-04 08:36:25 51°13.898 2°52.835 7 310 9.1 101480 72
2007-12-04 08:36:29 51°13.906 2°52.856 5.7 22 9.1 101480 72
2007-12-04 08:36:35 51°13.915 2°52.889 7.8 305 9.1 101480 72
2007-12-04 08:36:39 51°13.924 2°52.908 4.9 23 9.1 101480 72
2007-12-04 08:36:44 51°13.931 2°52.936 7.7 304 9.1 101480 72
2007-12-04 08:36:49 51°13.942 2°52.961 5.5 24 9.1 101470 72
2007-12-04 08:36:55 51°13.951 2°52.994 7.9 305 9.1 101470 72
2007-12-04 08:36:59 51°13.96 2°53.014 6.6 22 9.1 101470 71
2007-12-04 08:37:04 51°13.969 2°53.041 5.4 310 9.1 101470 71
2007-12-04 08:37:09 51°13.978 2°53.067 6.5 26 9.1 101470 71
2007-12-04 08:37:15 51°13.987 2°53.101 8.1 304 9.1 101470 71
2007-12-04 08:37:19 51°13.998 2°53.119 4.8 26 9.1 101480 71
2007-12-04 08:37:24 51°14.005 2°53.147 6.5 307 9.1 101480 71
2007-12-04 08:37:29 51°14.017 2°53.171 5.3 20 9.1 101480 71
2007-12-04 08:37:35 51°14.027 2°53.204 7 301 9.1 101480 71
2007-12-04 08:37:40 51°14.04 2°53.228 6.1 26 9.1 101470 72
2007-12-04 08:37:45 51°14.048 2°53.254 6.4 303 9.1 101470 72
2007-12-04 08:37:49 51°14.056 2°53.274 7.3 20 9.1 101470 72
2007-12-04 08:37:54 51°14.066 2°53.3 6.4 309 9.1 101470 72
2007-12-04 08:38:00 51°14.076 2°53.332 6.6 20 9.1 101470 71
2007-12-04 08:38:05 51°14.086 2°53.358 6.2 309 9.1 101470 71
2007-12-04 08:38:09 51°14.094 2°53.379 4.8 25 9.1 101480 71
2007-12-04 08:38:14 51°14.103 2°53.406 6.1 285 9.1 101480 71
2007-12-04 08:38:19 51°14.114 2°53.431 5.7 25 9.1 101490 71
2007-12-04 08:38:25 51°14.125 2°53.463 6.4 309 9.1 101490 71
2007-12-04 08:38:29 51°14.134 2°53.483 5.8 27 9.1 101480 71
2007-12-04 08:38:34 51°14.143 2°53.509 5.5 307 9.1 101480 71
2007-12-04 08:38:39 51°14.153 2°53.535 5.6 23 9.1 101480 72
2007-12-04 08:38:45 51°14.164 2°53.567 8.1 309 9.1 101480 72
2007-12-04 08:38:49 51°14.173 2°53.587 6.7 24 9.1 101480 72
2007-12-04 08:38:55 51°14.184 2°53.619 6.1 305 9.1 101480 72
2007-12-04 08:39:00 51°14.194 2°53.644 6.1 22 9.1 101490 72
2007-12-04 08:39:04 51°14.2 2°53.667 7.9 305 9.1 101490 72
2007-12-04 08:39:09 51°14.212 2°53.691 5.1 20 9.1 101480 72
2007-12-04 08:39:15 51°14.222 2°53.724 6.5 304 9.1 101480 72
2007-12-04 08:39:20 51°14.233 2°53.748 5.4 244 9.1 101480 72
2007-12-04 08:39:24 51°14.239 2°53.77 7.3 309 9.1 101480 72
2007-12-04 08:39:29 51°14.251 2°53.795 5.1 22 9.1 101480 72
2007-12-04 08:39:35 51°14.262 2°53.827 6.7 307 9.1 101480 72
2007-12-04 08:39:40 51°14.272 2°53.852 5.5 21 9.1 101480 72
2007-12-04 08:39:45 51°14.282 2°53.878 6.2 309 9.1 101480 72
2007-12-04 08:39:49 51°14.29 2°53.898 5.1 27 9.1 101480 72
2007-12-04 08:39:55 51°14.301 2°53.93 5.4 302 9.1 101480 72
2007-12-04 08:40:00 51°14.312 2°53.955 4.7 24 9.1 101480 71
2007-12-04 08:40:05 51°14.32 2°53.982 6.5 302 9.1 101480 71
2007-12-04 08:40:09 51°14.33 2°54.001 5 24 9.1 101480 71
2007-12-04 08:40:14 51°14.338 2°54.028 5.6 278 9.1 101480 71
2007-12-04 08:40:20 51°14.351 2°54.057 6 20 9.1 101490 71
2007-12-04 08:40:25 51°14.36 2°54.084 7.5 308 9.1 101490 71
2007-12-04 08:40:29 51°14.369 2°54.104 5.2 27 9.1 101470 71
2007-12-04 08:40:34 51°14.377 2°54.131 5.1 307 9.1 101470 71
2007-12-04 08:40:40 51°14.39 2°54.161 5.3 27 9.1 101480 71
2007-12-04 08:40:45 51°14.399 2°54.188 7.1 308 9.1 101480 71
2007-12-04 08:40:49 51°14.407 2°54.208 6.7 19 9.1 101490 71
2007-12-04 08:40:54 51°14.416 2°54.234 5.5 302 9.1 101490 71
2007-12-04 08:40:59 51°14.426 2°54.26 6 25 9.1 101480 71
2007-12-04 08:41:04 51°14.436 2°54.285 5.7 310 9.1 101480 71
2007-12-04 08:41:09 51°14.445 2°54.312 6.2 21 9.1 101480 71
2007-12-04 08:41:14 51°14.457 2°54.336 4.5 303 9.1 101480 71
2007-12-04 08:41:19 51°14.466 2°54.363 6.6 25 9.1 101490 71
2007-12-04 08:41:25 51°14.479 2°54.392 6.3 309 9.1 101490 71
2007-12-04 08:41:30 51°14.49 2°54.417 5.4 25 9.1 101490 71
2007-12-04 08:41:34 51°14.499 2°54.435 4.6 309 9.1 101490 71
2007-12-04 08:41:39 51°14.509 2°54.461 4.7 26 9.1 101490 71
2007-12-04 08:41:45 51°14.524 2°54.488 5 311 9.1 101490 71
2007-12-04 08:41:49 51°14.531 2°54.51 7.4 24 9.1 101480 71
2007-12-04 08:41:54 51°14.545 2°54.53 6 305 9.1 101480 71
2007-12-04 08:41:59 51°14.556 2°54.554 9.5 22 9.1 101500 71
2007-12-04 08:42:05 51°14.574 2°54.575 6.5 304 9.1 101500 71
2007-12-04 08:42:09 51°14.584 2°54.592 8.5 24 9.1 101490 72
2007-12-04 08:42:14 51°14.599 2°54.609 9 285 9.1 101490 72
2007-12-04 08:42:20 51°14.618 2°54.627 8.6 25 9.1 101480 71
2007-12-04 08:42:25 51°14.634 2°54.643 10.6 306 9.1 101480 71
2007-12-04 08:42:29 51°14.647 2°54.653 9.1 28 9.1 101490 71
2007-12-04 08:42:34 51°14.663 2°54.668 8.9 309 9.1 101490 71
2007-12-04 08:42:40 51°14.683 2°54.682 9.8 19 9.1 101480 72
2007-12-04 08:42:45 51°14.7 2°54.692 11 305 9.1 101480 72
2007-12-04 08:42:49 51°14.714 2°54.699 10.4 22 9.1 101480 71
2007-12-04 08:42:54 51°14.731 2°54.706 9.5 304 9.1 101480 71
2007-12-04 08:43:00 51°14.752 2°54.715 10.4 25 9.1 101470 71
2007-12-04 08:43:05 51°14.77 2°54.72 9.7 304 9.1 101470 71
2007-12-04 08:43:09 51°14.784 2°54.724 10 24 9.1 101470 71
2007-12-04 08:43:14 51°14.802 2°54.727 10.1 307 9.1 101470 71
2007-12-04 08:43:20 51°14.823 2°54.731 10.3 23 9.1 101470 71
2007-12-04 08:43:24 51°14.837 2°54.731 11.1 302 9.1 101470 71
2007-12-04 08:43:29 51°14.854 2°54.733 11.4 26 9.1 101480 71
2007-12-04 08:43:34 51°14.872 2°54.734 11.3 305 9.1 101480 71
2007-12-04 08:43:40 51°14.893 2°54.734 12.9 27 9.1 101480 71
2007-12-04 08:43:44 51°14.907 2°54.734 12 308 9.1 101480 71
2007-12-04 08:43:49 51°14.925 2°54.731 9.9 316 9.1 101480 71
2007-12-04 08:43:55 51°14.945 2°54.728 10.4 302 9.1 101480 71
2007-12-04 08:44:00 51°14.962 2°54.723 12.3 319 9.1 101470 71
2007-12-04 08:44:05 51°14.979 2°54.719 13.1 305 9.1 101470 71
2007-12-04 08:44:09 51°14.993 2°54.715 11.6 316 9.1 101470 71
2007-12-04 08:44:15 51°15.014 2°54.708 10.7 285 9.1 101470 71
2007-12-04 08:44:20 51°15.03 2°54.703 12.8 316 9.1 101470 71
2007-12-04 08:44:25 51°15.048 2°54.697 13.6 305 9.1 101470 71
2007-12-04 08:44:29 51°15.061 2°54.693 13 316 9.1 101480 71
2007-12-04 08:44:34 51°15.078 2°54.687 12.3 306 9.1 101480 71
2007-12-04 08:44:40 51°15.098 2°54.681 12.4 318 9.1 101470 71
2007-12-04 08:44:45 51°15.115 2°54.676 12.4 310 9.1 101470 71
2007-12-04 08:44:49 51°15.129 2°54.671 10.9 318 9.1 101470 71
2007-12-04 08:44:54 51°15.145 2°54.666 12.1 305 9.1 101470 71
2007-12-04 08:45:00 51°15.165 2°54.661 13.9 23 9.1 101470 71
2007-12-04 08:45:05 51°15.181 2°54.657 12.4 307 9.1 101470 71
2007-12-04 08:45:10 51°15.198 2°54.652 11.2 25 9.1 101480 71
2007-12-04 08:45:14 51°15.211 2°54.649 10.8 301 9.1 101480 71
2007-12-04 08:45:19 51°15.228 2°54.644 11.3 318 9.2 101490 71
2007-12-04 08:45:25 51°15.247 2°54.639 12.1 304 9.2 101490 71
2007-12-04 08:45:29 51°15.261 2°54.635 11.3 316 9.2 101470 71
2007-12-04 08:45:33 51°15.274 2°54.631 11.7 305 9.2 101470 71
2007-12-04 08:45:39 51°15.294 2°54.625 9.9 319 9.2 101470 71
2007-12-04 08:45:44 51°15.312 2°54.621 11.5 306 9.2 101470 71
2007-12-04 08:45:49 51°15.329 2°54.616 13.9 319 9.2 101480 71
2007-12-04 08:45:55 51°15.348 2°54.611 11.9 307 9.2 101480 71
2007-12-04 08:46:00 51°15.365 2°54.606 11.6 317 9.2 101480 72
2007-12-04 08:46:04 51°15.378 2°54.602 12 307 9.2 101480 72
2007-12-04 08:46:09 51°15.394 2°54.596 11.4 315 9.2 101480 72
2007-12-04 08:46:15 51°15.413 2°54.589 12.9 277 9.2 101480 72
2007-12-04 08:46:20 51°15.43 2°54.582 12.8 316 9.2 101480 71
2007-12-04 08:46:24 51°15.443 2°54.577 10.8 310 9.2 101480 71
2007-12-04 08:46:29 51°15.46 2°54.572 9.3 316 9.2 101480 71
2007-12-04 08:46:35 51°15.479 2°54.564 13.1 309 9.2 101480 71
2007-12-04 08:46:40 51°15.495 2°54.56 12.2 19 9.2 101480 71
2007-12-04 08:46:45 51°15.512 2°54.554 12.1 307 9.2 101480 71
2007-12-04 08:46:49 51°15.525 2°54.549 11.9 317 9.2 101470 71
2007-12-04 08:46:54 51°15.54 2°54.543 11.5 304 9.2 101470 71
2007-12-04 08:47:00 51°15.559 2°54.535 10.2 316 9.2 101490 71
2007-12-04 08:47:05 51°15.576 2°54.529 12.3 306 9.2 101490 71
2007-12-04 08:47:09 51°15.589 2°54.524 12.2 316 9.2 101470 71
2007-12-04 08:47:14 51°15.606 2°54.517 10 301 9.2 101470 71
2007-12-04 08:47:20 51°15.626 2°54.509 11.2 316 9.2 101520 72
2007-12-04 08:47:25 51°15.643 2°54.503 11.1 305 9.2 101520 72
2007-12-04 08:47:29 51°15.656 2°54.497 12.1 317 9.2 101480 72
2007-12-04 08:47:35 51°15.676 2°54.49 12.5 308 9.2 101480 72
2007-12-04 08:47:39 51°15.689 2°54.484 11.3 318 9.2 101480 72
2007-12-04 08:47:45 51°15.709 2°54.476 9.9 302 9.2 101480 72
2007-12-04 08:47:49 51°15.723 2°54.471 11.4 317 9.2 101490 72
2007-12-04 08:47:55 51°15.742 2°54.462 10.6 307 9.2 101490 72
2007-12-04 08:47:59 51°15.755 2°54.455 12.7 319 9.2 101490 72
2007-12-04 08:48:04 51°15.771 2°54.447 10.3 305 9.2 101490 72
2007-12-04 08:48:09 51°15.788 2°54.439 11.9 315 9.2 101490 72
2007-12-04 08:48:15 51°15.807 2°54.429 11.6 279 9.2 101490 72
2007-12-04 08:48:19 51°15.82 2°54.422 11.5 316 9.2 101480 72
2007-12-04 08:48:24 51°15.836 2°54.413 13.4 305 9.2 101480 72
2007-12-04 08:48:29 51°15.852 2°54.404 13.6 316 9.2 101480 72
2007-12-04 08:48:35 51°15.871 2°54.394 12 306 9.2 101480 72
2007-12-04 08:48:39 51°15.883 2°54.387 13.4 24 9.2 101480 72
2007-12-04 08:48:44 51°15.899 2°54.379 10.6 305 9.2 101480 72
2007-12-04 08:48:49 51°15.915 2°54.371 10.5 316 9.2 101480 72
2007-12-04 08:48:55 51°15.935 2°54.36 12.2 306 9.2 101480 72
2007-12-04 08:49:00 51°15.951 2°54.352 12 20 9.2 101480 72
2007-12-04 08:49:05 51°15.966 2°54.343 12.2 306 9.2 101480 72
2007-12-04 08:49:09 51°15.979 2°54.336 13.8 317 9.2 101470 71
2007-12-04 08:49:14 51°15.995 2°54.328 11.6 304 9.2 101470 71
2007-12-04 08:49:20 51°16.014 2°54.318 12.1 317 9.2 101470 72
2007-12-04 08:49:25 51°16.029 2°54.31 12.5 308 9.2 101470 72
2007-12-04 08:49:29 51°16.042 2°54.304 11.3 316 9.2 101480 72
2007-12-04 08:49:34 51°16.057 2°54.297 12.7 303 9.2 101480 72
2007-12-04 08:49:39 51°16.071 2°54.29 10.1 28 9.2 101470 71
2007-12-04 08:49:45 51°16.089 2°54.282 12.4 305 9.2 101470 71
2007-12-04 08:49:49 51°16.1 2°54.276 10.3 26 9.2 101480 72
2007-12-04 08:49:54 51°16.114 2°54.27 11.6 304 9.2 101480 72
2007-12-04 08:49:59 51°16.127 2°54.263 8.4 26 9.2 101510 71
2007-12-04 08:50:05 51°16.141 2°54.257 9.8 302 9.2 101510 71
2007-12-04 08:50:09 51°16.15 2°54.253 9.4 24 9.2 101510 71
2007-12-04 08:50:14 51°16.16 2°54.249 10.7 277 9.2 101510 71
2007-12-04 08:50:19 51°16.17 2°54.246 10 21 9.2 101530 71
2007-12-04 08:50:24 51°16.178 2°54.243 8.1 309 9.2 101530 71
2007-12-04 08:50:29 51°16.186 2°54.241 10 21 9.2 101540 71
2007-12-04 08:50:35 51°16.194 2°54.239 8.5 309 9.2 101540 71
2007-12-04 08:50:40 51°16.2 2°54.239 8.7 24 9.2 101510 71
2007-12-04 08:50:45 51°16.206 2°54.238 6.8 304 9.2 101510 71
2007-12-04 08:50:49 51°16.21 2°54.238 5.7 22 9.2 101530 71
2007-12-04 08:50:55 51°16.216 2°54.238 6.3 308 9.2 101530 71
2007-12-04 08:51:00 51°16.221 2°54.24 7.8 28 9.2 101510 71
2007-12-04 08:51:05 51°16.224 2°54.241 8 310 9.2 101510 71
2007-12-04 08:51:09 51°16.228 2°54.242 5.8 19 9.2 101540 71
2007-12-04 08:51:15 51°16.231 2°54.246 6.3 304 9.2 101540 71
2007-12-04 08:51:20 51°16.234 2°54.249 6.3 22 9.2 101520 71
2007-12-04 08:51:25 51°16.236 2°54.251 7.7 303 9.2 101520 71
2007-12-04 08:51:29 51°16.238 2°54.253 5.4 251 9.2 101520 72
2007-12-04 08:51:34 51°16.24 2°54.257 5.4 303 9.2 101520 72
2007-12-04 08:51:40 51°16.242 2°54.261 5.4 259 9.2 101520 72
2007-12-04 08:51:45 51°16.244 2°54.263 6.2 308 9.2 101520 72
2007-12-04 08:51:49 51°16.245 2°54.266 5.2 261 9.2 101520 71
2007-12-04 08:51:54 51°16.246 2°54.269 4.1 304 9.2 101520 71
2007-12-04 08:51:59 51°16.247 2°54.272 4.6 264 9.2 101520 71
2007-12-04 08:52:05 51°16.248 2°54.275 5.6 307 9.2 101520 71
2007-12-04 08:52:09 51°16.248 2°54.277 4.5 264 9.2 101530 71
2007-12-04 08:52:14 51°16.248 2°54.279 5.7 278 9.2 101530 71
2007-12-04 08:52:19 51°16.248 2°54.281 6.7 270 9.2 101530 72
2007-12-04 08:52:25 51°16.249 2°54.284 6.3 58 9.2 101530 72
2007-12-04 08:52:29 51°16.249 2°54.288 4.5 263 9.2 101530 72
2007-12-04 08:52:35 51°16.249 2°54.291 5.7 307 9.2 101530 72
2007-12-04 08:52:39 51°16.25 2°54.292 5.5 20 9.2 101530 72
2007-12-04 08:52:44 51°16.25 2°54.295 5.4 305 9.2 101530 72
2007-12-04 08:52:49 51°16.251 2°54.297 6.7 24 9.2 101540 72
2007-12-04 08:52:55 51°16.251 2°54.301 7 62 9.2 101540 72
2007-12-04 08:53:00 51°16.251 2°54.303 6.1 28 9.2 101530 72
2007-12-04 08:53:06 51°16.252 2°54.306 6.1 62 9.2 101530 72
2007-12-04 08:53:11 51°16.252 2°54.309 5.5 24 9.2 101530 72
2007-12-04 08:53:17 51°16.252 2°54.313 6.2 14 9.2 101530 72
2007-12-04 08:53:22 51°16.253 2°54.315 5.4 19 9.2 101530 72
2007-12-04 08:53:27 51°16.254 2°54.317 7.5 63 9.2 101530 72
2007-12-04 08:53:32 51°16.253 2°54.321 6.3 29 9.2 101530 72
2007-12-04 08:53:37 51°16.254 2°54.323 6.7 56 9.2 101530 72
2007-12-04 08:53:42 51°16.254 2°54.327 6.4 267 9.2 101540 72
2007-12-04 08:53:46 51°16.255 2°54.328 6.1 55 9.2 101540 72
2007-12-04 08:53:51 51°16.254 2°54.332 5.2 268 9.2 101530 72
2007-12-04 08:53:56 51°16.255 2°54.334 6.3 80 9.2 101530 72
2007-12-04 08:54:01 51°16.256 2°54.336 5.5 29 9.2 101520 72
2007-12-04 08:54:06 51°16.256 2°54.339 6.9 75 9.2 101520 72
2007-12-04 08:54:10 51°16.257 2°54.342 6.2 26 9.2 101530 72
2007-12-04 08:54:15 51°16.257 2°54.345 6.2 81 9.2 101530 72
2007-12-04 08:54:20 51°16.257 2°54.348 5.1 23 9.2 101530 72
2007-12-04 08:54:25 51°16.257 2°54.351 5.8 75 9.2 101530 72
2007-12-04 08:54:30 51°16.258 2°54.354 6 25 9.2 101530 72
2007-12-04 08:54:35 51°16.259 2°54.357 5.5 85 9.2 101530 72
2007-12-04 08:54:39 51°16.259 2°54.36 6.2 26 9.2 101530 72
2007-12-04 08:54:45 51°16.26 2°54.363 6.3 82 9.2 101530 72
2007-12-04 08:54:49 51°16.26 2°54.366 6.3 24 9.2 101530 73
2007-12-04 08:54:55 51°16.261 2°54.369 6.5 76 9.2 101530 73
2007-12-04 08:55:00 51°16.262 2°54.372 6.6 26 9.2 101530 73
2007-12-04 08:55:05 51°16.262 2°54.376 6.3 74 9.2 101530 73
2007-12-04 08:55:09 51°16.263 2°54.378 5.7 27 9.2 101540 73
2007-12-04 08:55:15 51°16.263 2°54.383 7.1 82 9.2 101540 73
2007-12-04 08:55:20 51°16.264 2°54.385 5.7 26 9.2 101530 72
2007-12-04 08:55:25 51°16.264 2°54.39 5.4 75 9.2 101530 72
2007-12-04 08:55:29 51°16.266 2°54.391 5.3 26 9.2 101540 73
2007-12-04 08:55:35 51°16.265 2°54.396 6.9 75 9.2 101540 73
2007-12-04 08:55:40 51°16.267 2°54.399 5.9 25 9.2 101530 73
2007-12-04 08:55:45 51°16.267 2°54.402 5.7 55 9.2 101530 73
2007-12-04 08:55:49 51°16.268 2°54.404 4.7 24 9.2 101530 73
2007-12-04 08:55:54 51°16.268 2°54.408 5.8 279 9.2 101530 73
2007-12-04 08:56:00 51°16.269 2°54.412 5.7 266 9.2 101540 73
2007-12-04 08:56:05 51°16.27 2°54.415 5.5 53 9.2 101540 73
2007-12-04 08:56:09 51°16.27 2°54.417 5 21 9.2 101530 73
2007-12-04 08:56:14 51°16.271 2°54.421 5.1 80 9.2 101530 73
2007-12-04 08:56:19 51°16.272 2°54.425 7.1 27 9.2 101540 73
2007-12-04 08:56:25 51°16.272 2°54.429 7.9 57 9.2 101540 73
2007-12-04 08:56:29 51°16.273 2°54.431 7.7 271 9.2 101540 73
2007-12-04 08:56:35 51°16.274 2°54.435 7.4 286 9.2 101540 73
2007-12-04 08:56:39 51°16.275 2°54.438 7.6 24 9.2 101530 73
2007-12-04 08:56:45 51°16.275 2°54.442 7.8 306 9.2 101530 73
2007-12-04 08:56:49 51°16.276 2°54.444 5.9 270 9.2 101530 73
2007-12-04 08:56:55 51°16.277 2°54.449 5.8 80 9.2 101530 73
2007-12-04 08:56:59 51°16.277 2°54.451 5.8 270 9.2 101550 72
2007-12-04 08:57:04 51°16.278 2°54.455 5.9 285 9.2 101550 72
2007-12-04 08:57:09 51°16.279 2°54.458 6.7 30 9.2 101530 72
2007-12-04 08:57:15 51°16.28 2°54.463 5 280 9.2 101530 72
2007-12-04 08:57:19 51°16.281 2°54.465 6.2 270 9.2 101540 72
2007-12-04 08:57:25 51°16.281 2°54.47 5 281 9.2 101540 72
2007-12-04 08:57:29 51°16.282 2°54.472 5.2 267 9.2 101530 72
2007-12-04 08:57:35 51°16.283 2°54.476 6.6 284 9.2 101530 72
2007-12-04 08:57:39 51°16.283 2°54.48 5.1 268 9.2 101540 72
2007-12-04 08:57:45 51°16.285 2°54.483 5.8 283 9.2 101540 72
2007-12-04 08:57:49 51°16.285 2°54.486 5.4 266 9.2 101530 72
2007-12-04 08:57:55 51°16.286 2°54.49 6.6 307 9.2 101530 72
2007-12-04 08:58:00 51°16.287 2°54.493 5 267 9.2 101540 72
2007-12-04 08:58:05 51°16.288 2°54.496 4.8 279 9.2 101540 72
2007-12-04 08:58:09 51°16.289 2°54.499 6.3 268 9.2 101540 72
2007-12-04 08:58:14 51°16.289 2°54.502 4.3 280 9.2 101540 72
2007-12-04 08:58:20 51°16.29 2°54.506 6 268 9.2 101540 72